QPF
0.00 0.00 0.00 0.00 0.00 0.00 0.00 0.00 0.00 0.00 0.00 0.00 0.00 0.00 0.00 0.00 0.00 0.00 0.00 0.00 0.00 0.00 0.00 0.00 0.00 0.00 0.00 0.00 0.00 0.00 0.00 0.00 0.00 0.00 0.00 0.01 0.01 0.02
0.00 0.00 0.00 0.00 0.00 0.00 0.00 0.00 0.00 0.00 0.00 0.00 0.00 0.00 0.00 0.00 0.00 0.00 0.00 0.00 0.00 0.00 0.00 0.00 0.00 0.00 0.00 0.00 0.00 0.00 0.00 0.00 0.00 0.00 0.00 0.00 0.01 0.01
0.00 0.00 0.00 0.00 0.00 0.00 0.00 0.00 0.00 0.00 0.00 0.00 0.00 0.00 0.00 0.00 0.00 0.00 0.00 0.00 0.00 0.00 0.00 0.00 0.00 0.00 0.00 0.00 0.00 0.00 0.00 0.00 0.00 0.00 0.00 0.00 0.00 0.00
0.00 0.00 0.00 0.00 0.01 0.00 0.00 0.00 0.00 0.00 0.00 0.00 0.01 0.01 0.01 0.00 0.00 0.00 0.00 0.00 0.00 0.00 0.00 0.00 0.00 0.00 0.00 0.00 0.00 0.00 0.00 0.00 0.00 0.00 0.00 0.00 0.00 0.00
0.02 0.01 0.01 0.01 0.01 0.02 0.01 0.01 0.01 0.01 0.01 0.01 0.01 0.01 0.01 0.01 0.01 0.00 0.00 0.00 0.00 0.00 0.00 0.00 0.00 0.00 0.00 0.00 0.00 0.00 0.00 0.00 0.00 0.00 0.00 0.00 0.00 0.00
0.01 0.01 0.02 0.02 0.02 0.03 0.03 0.03 0.03 0.03 0.03 0.02 0.02 0.02 0.02 0.02 0.01 0.01 0.01 0.01 0.01 0.00 0.00 0.00 0.00 0.00 0.00 0.00 0.00 0.00 0.00 0.00 0.00 0.00 0.00 0.00 0.00 0.00
0.03 0.03 0.02 0.01 0.01 0.02 0.02 0.03 0.03 0.04 0.04 0.03 0.03 0.03 0.03 0.04 0.03 0.03 0.02 0.01 0.02 0.01 0.01 0.00 0.00 0.00 0.00 0.00 0.00 0.00 0.00 0.00 0.00 0.00 0.00 0.00 0.00 0.00
0.05 0.04 0.04 0.03 0.03 0.03 0.02 0.03 0.03 0.03 0.04 0.04 0.04 0.04 0.04 0.05 0.04 0.04 0.03 0.03 0.02 0.02 0.02 0.01 0.01 0.00 0.00 0.00 0.00 0.00 0.00 0.00 0.00 0.00 0.00 0.00 0.00 0.00
0.05 0.05 0.05 0.04 0.04 0.04 0.04 0.03 0.03 0.02 0.02 0.02 0.03 0.03 0.03 0.03 0.02 0.02 0.02 0.02 0.02 0.02 0.02 0.01 0.01 0.01 0.00 0.00 0.01 0.00 0.00 0.00 0.00 0.00 0.00 0.00 0.00 0.00
0.05 0.05 0.04 0.03 0.03 0.02 0.02 0.02 0.02 0.02 0.01 0.01 0.01 0.02 0.01 0.01 0.01 0.01 0.01 0.01 0.00 0.00 0.01 0.00 0.00 0.01 0.00 0.00 0.01 0.00 0.00 0.00 0.00 0.00 0.00 0.00 0.00 0.00
0.03 0.03 0.02 0.02 0.02 0.02 0.01 0.01 0.01 0.01 0.01 0.01 0.01 0.00 0.00 0.00 0.00 0.00 0.01 0.01 0.01 0.00 0.00 0.00 0.00 0.00 0.00 0.00 0.00 0.00 0.00 0.00 0.00 0.00 0.00 0.00 0.00 0.00
0.03 0.02 0.02 0.02 0.02 0.01 0.01 0.02 0.02 0.01 0.01 0.01 0.01 0.00 0.00 0.00 0.00 0.00 0.01 0.01 0.01 0.01 0.01 0.01 0.01 0.01 0.01 0.00 0.00 0.00 0.00 0.00 0.00 0.00 0.00 0.00 0.00 0.00
0.06 0.05 0.04 0.04 0.02 0.02 0.01 0.01 0.01 0.01 0.01 0.01 0.02 0.02 0.02 0.02 0.02 0.02 0.02 0.03 0.03 0.02 0.01 0.02 0.02 0.02 0.02 0.01 0.01 0.01 0.01 0.01 0.01 0.00 0.00 0.00 0.00 0.00
0.03 0.03 0.02 0.02 0.01 0.01 0.01 0.01 0.02 0.01 0.01 0.02 0.02 0.02 0.02 0.02 0.02 0.01 0.01 0.01 0.01 0.01 0.01 0.01 0.02 0.02 0.02 0.02 0.01 0.01 0.01 0.01 0.01 0.01 0.01 0.00 0.00 0.00
0.01 0.01 0.01 0.01 0.01 0.01 0.01 0.01 0.01 0.01 0.01 0.01 0.01 0.01 0.01 0.01 0.01 0.01 0.01 0.01 0.00 0.00 0.00 0.01 0.02 0.02 0.02 0.02 0.01 0.01 0.01 0.00 0.00 0.01 0.01 0.01 0.01 0.01
0.01 0.01 0.01 0.01 0.01 0.01 0.01 0.01 0.01 0.01 0.01 0.01 0.01 0.01 0.01 0.01 0.01 0.00 0.00 0.00 0.00 0.00 0.00 0.01 0.01 0.02 0.02 0.02 0.01 0.01 0.01 0.01 0.01 0.01 0.01 0.01 0.01 0.01
0.00 0.00 0.00 0.00 0.00 0.01 0.01 0.01 0.01 0.01 0.01 0.01 0.01 0.01 0.01 0.01 0.01 0.01 0.01 0.01 0.01 0.01 0.00 0.00 0.01 0.01 0.02 0.02 0.02 0.01 0.01 0.01 0.02 0.02 0.04 0.03 0.02 0.02
0.00 0.00 0.00 0.00 0.00 0.01 0.01 0.01 0.01 0.01 0.01 0.01 0.02 0.02 0.02 0.02 0.01 0.01 0.02 0.02 0.01 0.01 0.01 0.01 0.01 0.01 0.01 0.01 0.01 0.02 0.03 0.03 0.04 0.05 0.06 0.05 0.03 0.02
0.00 0.00 0.00 0.00 0.00 0.00 0.00 0.00 0.00 0.01 0.01 0.01 0.01 0.02 0.02 0.02 0.02 0.02 0.02 0.02 0.02 0.02 0.01 0.01 0.02 0.03 0.03 0.02 0.01 0.02 0.03 0.04 0.04 0.04 0.05 0.06 0.04 0.03
0.00 0.00 0.00 0.00 0.00 0.00 0.00 0.00 0.00 0.01 0.01 0.02 0.02 0.02 0.02 0.02 0.02 0.02 0.02 0.02 0.02 0.02 0.02 0.01 0.02 0.04 0.05 0.04 0.03 0.01 0.01 0.03 0.04 0.05 0.05 0.06 0.06 0.04
0.00 0.00 0.00 0.00 0.01 0.01 0.01 0.01 0.01 0.01 0.02 0.02 0.02 0.02 0.02 0.02 0.02 0.02 0.02 0.02 0.02 0.02 0.02 0.01 0.02 0.03 0.03 0.04 0.04 0.02 0.02 0.02 0.04 0.05 0.06 0.06 0.06 0.06
0.00 0.01 0.01 0.01 0.01 0.01 0.01 0.01 0.01 0.01 0.01 0.01 0.01 0.02 0.02 0.02 0.02 0.02 0.02 0.02 0.02 0.02 0.02 0.02 0.02 0.02 0.03 0.05 0.05 0.04 0.03 0.03 0.04 0.04 0.04 0.05 0.07 0.07
0.00 0.00 0.00 0.00 0.01 0.01 0.01 0.01 0.01 0.01 0.01 0.01 0.01 0.01 0.01 0.01 0.01 0.02 0.02 0.02 0.02 0.02 0.02 0.02 0.02 0.02 0.03 0.04 0.05 0.04 0.04 0.03 0.03 0.04 0.05 0.05 0.05 0.04
MSLP
1019.06 1019.09 1019.14 1019.19 1019.24 1019.26 1019.24 1019.19 1019.11 1019.00 1018.88 1018.77 1018.68 1018.62 1018.59 1018.61 1018.66 1018.74 1018.86 1018.99 1019.15 1019.30 1019.45 1019.59 1019.70 1019.78 1019.81 1019.81 1019.76 1019.69 1019.61 1019.52 1019.43 1019.37 1019.34 1019.33 1019.35 1019.40
1018.81 1018.85 1018.90 1018.96 1019.00 1019.01 1018.99 1018.93 1018.83 1018.72 1018.59 1018.48 1018.37 1018.30 1018.26 1018.24 1018.27 1018.32 1018.39 1018.49 1018.61 1018.74 1018.88 1019.01 1019.13 1019.22 1019.28 1019.31 1019.31 1019.27 1019.20 1019.13 1019.05 1018.98 1018.92 1018.88 1018.87 1018.87
1018.51 1018.59 1018.67 1018.75 1018.79 1018.80 1018.77 1018.69 1018.59 1018.46 1018.32 1018.19 1018.07 1017.99 1017.93 1017.89 1017.88 1017.90 1017.92 1017.97 1018.03 1018.11 1018.19 1018.29 1018.39 1018.48 1018.56 1018.62 1018.66 1018.67 1018.66 1018.63 1018.59 1018.54 1018.49 1018.45 1018.41 1018.39
1018.28 1018.43 1018.56 1018.66 1018.73 1018.74 1018.70 1018.60 1018.48 1018.32 1018.17 1018.03 1017.90 1017.80 1017.72 1017.66 1017.62 1017.58 1017.54 1017.51 1017.49 1017.48 1017.48 1017.51 1017.55 1017.62 1017.69 1017.77 1017.85 1017.92 1017.97 1018.00 1018.02 1018.02 1018.00 1017.98 1017.94 1017.91
1018.25 1018.46 1018.65 1018.80 1018.89 1018.90 1018.85 1018.74 1018.59 1018.41 1018.23 1018.07 1017.92 1017.80 1017.71 1017.62 1017.53 1017.44 1017.33 1017.21 1017.08 1016.95 1016.85 1016.77 1016.72 1016.72 1016.75 1016.82 1016.92 1017.03 1017.13 1017.23 1017.31 1017.37 1017.40 1017.41 1017.40 1017.37
1018.47 1018.75 1019.00 1019.19 1019.29 1019.31 1019.25 1019.12 1018.94 1018.73 1018.52 1018.32 1018.15 1018.01 1017.89 1017.77 1017.64 1017.48 1017.29 1017.07 1016.83 1016.58 1016.34 1016.13 1015.97 1015.87 1015.83 1015.86 1015.94 1016.06 1016.20 1016.34 1016.48 1016.59 1016.67 1016.71 1016.72 1016.71
1018.96 1019.29 1019.58 1019.79 1019.91 1019.93 1019.84 1019.68 1019.47 1019.22 1018.97 1018.74 1018.54 1018.37 1018.21 1018.06 1017.88 1017.67 1017.41 1017.09 1016.74 1016.37 1015.99 1015.65 1015.36 1015.14 1015.00 1014.96 1014.99 1015.08 1015.22 1015.38 1015.54 1015.68 1015.79 1015.86 1015.89 1015.89
1019.63 1019.99 1020.29 1020.51 1020.63 1020.63 1020.52 1020.32 1020.06 1019.77 1019.47 1019.20 1018.96 1018.75 1018.56 1018.37 1018.15 1017.89 1017.57 1017.19 1016.75 1016.27 1015.79 1015.32 1014.91 1014.57 1014.33 1014.18 1014.13 1014.17 1014.26 1014.40 1014.54 1014.68 1014.80 1014.88 1014.91 1014.91
1020.37 1020.72 1021.00 1021.21 1021.30 1021.27 1021.12 1020.88 1020.58 1020.24 1019.89 1019.57 1019.28 1019.03 1018.80 1018.57 1018.33 1018.03 1017.68 1017.25 1016.76 1016.22 1015.67 1015.11 1014.61 1014.17 1013.82 1013.57 1013.43 1013.38 1013.39 1013.47 1013.56 1013.67 1013.75 1013.81 1013.83 1013.82
1021.03 1021.33 1021.58 1021.74 1021.79 1021.71 1021.53 1021.25 1020.89 1020.50 1020.11 1019.73 1019.39 1019.10 1018.83 1018.57 1018.30 1018.00 1017.63 1017.20 1016.71 1016.15 1015.57 1014.98 1014.42 1013.91 1013.48 1013.14 1012.90 1012.74 1012.67 1012.64 1012.66 1012.69 1012.71 1012.72 1012.70 1012.66
1021.50 1021.73 1021.91 1022.01 1022.00 1021.89 1021.66 1021.34 1020.95 1020.51 1020.07 1019.65 1019.26 1018.92 1018.61 1018.33 1018.05 1017.75 1017.40 1017.00 1016.53 1016.01 1015.45 1014.87 1014.30 1013.77 1013.28 1012.87 1012.54 1012.28 1012.09 1011.96 1011.87 1011.80 1011.74 1011.68 1011.60 1011.51
1021.74 1021.88 1021.98 1022.01 1021.95 1021.79 1021.53 1021.18 1020.76 1020.30 1019.82 1019.36 1018.93 1018.55 1018.21 1017.91 1017.62 1017.32 1017.01 1016.65 1016.25 1015.79 1015.29 1014.76 1014.22 1013.69 1013.18 1012.72 1012.31 1011.96 1011.66 1011.42 1011.21 1011.04 1010.88 1010.74 1010.59 1010.45
1021.78 1021.82 1021.83 1021.79 1021.68 1021.49 1021.21 1020.85 1020.42 1019.95 1019.46 1018.98 1018.52 1018.10 1017.73 1017.41 1017.11 1016.83 1016.55 1016.24 1015.90 1015.52 1015.10 1014.63 1014.14 1013.63 1013.12 1012.63 1012.16 1011.73 1011.33 1010.98 1010.67 1010.39 1010.14 1009.91 1009.69 1009.49
1021.69 1021.63 1021.56 1021.46 1021.31 1021.10 1020.82 1020.47 1020.06 1019.60 1019.12 1018.63 1018.16 1017.72 1017.33 1016.98 1016.67 1016.39 1016.13 1015.87 1015.58 1015.27 1014.91 1014.51 1014.06 1013.58 1013.07 1012.55 1012.03 1011.52 1011.04 1010.59 1010.19 1009.81 1009.47 1009.17 1008.89 1008.63
1021.56 1021.42 1021.28 1021.13 1020.96 1020.75 1020.49 1020.18 1019.80 1019.38 1018.93 1018.45 1017.98 1017.53 1017.12 1016.74 1016.42 1016.13 1015.86 1015.61 1015.36 1015.08 1014.76 1014.39 1013.97 1013.50 1012.98 1012.43 1011.86 1011.29 1010.73 1010.20 1009.71 1009.26 1008.85 1008.48 1008.15 1007.84
1021.48 1021.27 1021.08 1020.90 1020.73 1020.53 1020.31 1020.04 1019.73 1019.36 1018.95 1018.51 1018.05 1017.60 1017.17 1016.77 1016.41 1016.09 1015.81 1015.54 1015.27 1014.99 1014.67 1014.30 1013.87 1013.38 1012.83 1012.23 1011.61 1010.97 1010.34 1009.74 1009.18 1008.67 1008.21 1007.80 1007.43 1007.09
1021.49 1021.24 1021.01 1020.82 1020.66 1020.49 1020.32 1020.11 1019.86 1019.56 1019.20 1018.80 1018.37 1017.92 1017.48 1017.05 1016.66 1016.30 1015.96 1015.65 1015.34 1015.01 1014.65 1014.24 1013.77 1013.22 1012.62 1011.96 1011.26 1010.56 1009.86 1009.20 1008.58 1008.02 1007.53 1007.09 1006.70 1006.34
1021.59 1021.31 1021.08 1020.89 1020.74 1020.61 1020.48 1020.34 1020.15 1019.91 1019.62 1019.26 1018.86 1018.42 1017.97 1017.51 1017.07 1016.66 1016.27 1015.88 1015.51 1015.11 1014.68 1014.19 1013.64 1013.02 1012.34 1011.60 1010.83 1010.05 1009.29 1008.57 1007.91 1007.32 1006.79 1006.34 1005.93 1005.56
1021.74 1021.46 1021.22 1021.05 1020.92 1020.83 1020.74 1020.65 1020.52 1020.33 1020.08 1019.77 1019.39 1018.96 1018.49 1018.01 1017.53 1017.06 1016.60 1016.15 1015.70 1015.22 1014.70 1014.13 1013.49 1012.79 1012.02 1011.20 1010.35 1009.50 1008.68 1007.91 1007.20 1006.58 1006.03 1005.56 1005.15 1004.77
1021.89 1021.62 1021.40 1021.24 1021.13 1021.07 1021.02 1020.96 1020.87 1020.72 1020.50 1020.20 1019.83 1019.40 1018.92 1018.42 1017.90 1017.39 1016.87 1016.35 1015.83 1015.27 1014.68 1014.03 1013.31 1012.53 1011.68 1010.79 1009.87 1008.96 1008.08 1007.26 1006.52 1005.86 1005.29 1004.80 1004.37 1003.98
1022.01 1021.75 1021.56 1021.42 1021.34 1021.29 1021.26 1021.21 1021.13 1020.99 1020.77 1020.48 1020.10 1019.66 1019.16 1018.63 1018.08 1017.52 1016.97 1016.40 1015.83 1015.22 1014.57 1013.87 1013.09 1012.25 1011.35 1010.40 1009.44 1008.48 1007.55 1006.69 1005.91 1005.22 1004.62 1004.10 1003.64 1003.22
1022.08 1021.86 1021.69 1021.57 1021.50 1021.46 1021.42 1021.37 1021.27 1021.11 1020.87 1020.55 1020.15 1019.68 1019.15 1018.59 1018.02 1017.43 1016.85 1016.26 1015.66 1015.03 1014.36 1013.63 1012.83 1011.97 1011.04 1010.07 1009.08 1008.09 1007.13 1006.24 1005.42 1004.69 1004.04 1003.48 1002.98 1002.52
1022.12 1021.93 1021.79 1021.69 1021.62 1021.57 1021.52 1021.44 1021.30 1021.10 1020.81 1020.44 1019.99 1019.47 1018.91 1018.31 1017.71 1017.11 1016.51 1015.92 1015.32 1014.69 1014.03 1013.31 1012.53 1011.68 1010.76 1009.79 1008.79 1007.80 1006.83 1005.90 1005.05 1004.27 1003.58 1002.96 1002.40 1001.88
Thickness
5717 5716 5716 5719 5718 5718 5718 5716 5712 5710 5713 5715 5716 5716 5712 5711 5708 5706 5706 5703 5701 5699 5698 5697 5696 5696 5695 5694 5694 5694 5693 5693 5693 5692 5692 5692 5692 5691
5712 5711 5711 5715 5715 5714 5714 5713 5711 5708 5708 5713 5711 5714 5708 5708 5705 5703 5703 5701 5699 5698 5697 5696 5695 5694 5693 5693 5692 5692 5691 5691 5691 5690 5690 5690 5690 5690
5708 5707 5706 5706 5708 5710 5709 5708 5707 5705 5701 5706 5709 5708 5701 5700 5701 5700 5700 5699 5701 5698 5696 5694 5693 5692 5691 5691 5691 5690 5690 5689 5689 5688 5688 5688 5688 5688
5704 5703 5703 5703 5701 5701 5701 5701 5701 5699 5696 5694 5698 5700 5697 5696 5695 5694 5696 5698 5697 5697 5693 5691 5690 5689 5689 5689 5688 5688 5687 5687 5686 5686 5686 5685 5685 5685
5701 5700 5699 5698 5695 5696 5694 5695 5695 5695 5692 5690 5691 5692 5692 5691 5689 5688 5691 5689 5690 5692 5690 5688 5687 5686 5686 5685 5685 5685 5684 5683 5683 5683 5683 5682 5682 5682
5696 5695 5694 5692 5689 5687 5687 5685 5685 5684 5684 5682 5682 5684 5682 5683 5680 5680 5682 5684 5683 5684 5684 5683 5683 5682 5682 5681 5681 5680 5680 5679 5679 5679 5679 5678 5678 5678
5688 5686 5684 5681 5678 5676 5677 5676 5674 5673 5674 5673 5672 5672 5672 5669 5668 5669 5668 5670 5673 5673 5675 5676 5677 5678 5679 5677 5676 5676 5675 5674 5673 5673 5673 5673 5673 5674
5676 5673 5671 5668 5665 5662 5660 5659 5658 5659 5659 5658 5659 5657 5655 5654 5654 5652 5652 5653 5656 5662 5659 5662 5664 5666 5668 5669 5671 5670 5668 5666 5665 5665 5666 5667 5667 5668
5664 5661 5660 5657 5654 5652 5648 5646 5644 5641 5640 5641 5642 5641 5639 5640 5637 5637 5638 5638 5639 5643 5643 5647 5652 5653 5657 5660 5660 5658 5657 5656 5656 5656 5656 5658 5659 5660
5651 5648 5646 5642 5640 5638 5637 5636 5633 5631 5628 5627 5625 5624 5623 5621 5620 5620 5620 5623 5628 5631 5632 5634 5640 5642 5647 5648 5648 5647 5646 5645 5645 5646 5646 5647 5649 5651
5638 5635 5632 5628 5622 5621 5622 5621 5619 5617 5614 5611 5608 5607 5605 5604 5603 5605 5608 5611 5617 5621 5622 5621 5625 5628 5632 5635 5637 5636 5636 5635 5635 5635 5636 5637 5639 5640
5625 5621 5614 5611 5606 5604 5606 5606 5604 5602 5600 5599 5597 5595 5594 5594 5591 5589 5591 5594 5598 5602 5605 5602 5605 5607 5613 5621 5623 5623 5623 5624 5625 5626 5627 5628 5628 5628
5614 5610 5602 5593 5590 5588 5586 5587 5584 5581 5584 5585 5585 5585 5583 5582 5580 5578 5577 5575 5577 5581 5582 5581 5583 5586 5589 5598 5602 5603 5605 5608 5612 5615 5616 5617 5617 5616
5597 5593 5586 5578 5575 5572 5572 5569 5566 5564 5570 5572 5571 5570 5569 5567 5564 5561 5559 5557 5556 5558 5558 5557 5560 5563 5567 5575 5582 5585 5587 5589 5592 5596 5600 5603 5605 5606
5579 5571 5567 5564 5561 5561 5557 5553 5551 5554 5555 5554 5553 5552 5549 5546 5543 5542 5542 5542 5542 5542 5543 5542 5542 5545 5547 5552 5559 5564 5568 5571 5573 5578 5582 5586 5590 5593
5565 5559 5553 5550 5547 5544 5542 5542 5540 5537 5533 5532 5531 5530 5528 5526 5525 5524 5524 5525 5526 5528 5526 5525 5525 5526 5529 5533 5538 5545 5548 5553 5557 5560 5564 5570 5573 5577
5543 5546 5544 5541 5536 5532 5528 5524 5520 5516 5514 5511 5509 5508 5507 5506 5505 5504 5503 5504 5506 5508 5510 5509 5509 5511 5513 5515 5521 5528 5532 5537 5541 5545 5547 5553 5559 5563
5525 5530 5525 5520 5515 5511 5507 5503 5499 5496 5492 5490 5489 5487 5487 5486 5486 5485 5484 5485 5487 5489 5491 5492 5494 5496 5501 5506 5506 5511 5517 5521 5525 5528 5530 5537 5546 5551
5512 5510 5504 5498 5493 5489 5486 5483 5479 5476 5472 5471 5470 5469 5468 5468 5467 5468 5468 5469 5470 5472 5474 5476 5477 5480 5484 5493 5499 5496 5500 5505 5509 5515 5520 5524 5531 5538
5495 5490 5484 5478 5474 5470 5466 5463 5460 5458 5457 5456 5455 5454 5454 5454 5454 5454 5454 5454 5455 5457 5460 5463 5465 5467 5469 5475 5483 5489 5489 5494 5499 5504 5510 5515 5521 5527
5476 5470 5465 5460 5457 5453 5449 5447 5445 5444 5443 5442 5442 5441 5441 5441 5441 5441 5441 5441 5441 5446 5450 5454 5456 5456 5460 5465 5474 5484 5488 5489 5491 5495 5500 5505 5513 5520
5458 5453 5449 5445 5442 5439 5436 5434 5432 5432 5431 5431 5430 5430 5429 5429 5430 5430 5431 5432 5434 5437 5441 5445 5449 5451 5455 5460 5467 5475 5482 5486 5490 5494 5496 5498 5502 5510
5443 5439 5436 5433 5430 5427 5425 5422 5422 5422 5421 5420 5420 5419 5419 5419 5420 5421 5423 5425 5428 5431 5434 5439 5443 5446 5450 5455 5461 5468 5475 5482 5488 5494 5499 5501 5501 5504